2015-049G (40905 NORAD) Tracking and Keplerian Element Data

This shows tracking and keplerian element data for the satellite.

Feedback or suggestion? Click here.




ElementValue
Catalog40905
Name2015-049G
Epoch Orbit20330
Epoch Day146.08134155
Epoch Year2019
RAAN146.0791
Inclination97.4696
Eccentricity0.0014165
Argument of Perigee287.6175
Mean Anonmoly112.7808
Mean Motion15.14269201
Decay Rate-2E-08
L11 40905U 15049G 19146.08134155 -.00000002 00000-0 34771-5 0 9995
L22 40905 97.4696 146.0791 0014165 287.6175 112.7808 15.14269201203308

Live tracking and technical data element details for 2015-049G (NORAD 40905). 2015-049G can be tracked NOW for your location showing map with azimuth and elevation plus other details from your city location.

Track the satellite on the map from your city or location and see movement details for azimuth, elevation, latitude, longitude, range, height, and movement on the map or in text.







IsCatalogInMostPopularTable: catalog: 40905, numindb: 228
Update: records affected: 1



GetName: 40905 2015-049G

Hit Count: updated at: Sun, 26 May 2019 19:28:31 GMT